Starlink 5779

operational
NORAD ID: 56028 Int'l Des: 2023-042 Owner: SPXS Country: US Constellation: starlink
LEOCIRCULAR

About Starlink 5779

Description loading...

Live Position

Loading 3D Globe...

Upcoming Passes

Altitude History

Altitude vs Time

uPlot chart will show altitude changes over time

Two-Line Element Set

1 56028U 23042AU 26063.05085824 .00000179 00000-0 28335-4 0 9993
2 56028 43.0039 73.6046 0001422 269.4520 90.6160 15.02536929162211
Epoch: Mar 4, 2026 • Age: 9 hours

Current Status

Altitude 564.6 km
Velocity 7.58 km/s
Sub-Earth Point -24.86°S, 9.09°W
Launch Date Mar 24, 2023
Age 2.9 years
Type internet

Technical Details

Classification Payload
Mass 305.00 kg
Dry Mass 290.00 kg
Total Mass 305.00 kg
Length 0.20 m
Diameter 2.80 m
Span 9.00 m
Shape Box + pan
Manufacturer SPXS
Bus Type Starlink
Phase Status In Orbit
Owner/State SPXS/US

Large Constellations

Loading constellations...